User: anonymous   Login
Location: Hepcat Sky Observatory
(29.9800°N, 95.6500°W)
Time: 02:03:44
(UTC-06:00)
Language:

ALOS - Orbit

View from above orbital plane
View from above orbital plane
View from above satellite
View from above satellite

Ground track
Ground track

The orbit data is extracted from the following two-line orbital elements,

1 28931U 06002A   14330.86043748  .00001282  00000-0  26756-3 0  1154
2 28931 097.9627 023.0832 0002072 066.8555 293.2863 14.61484469471089
Epoch (UTC): 26 November 2014 20:39:01
Eccentricity: 0.0002072
inclination: 97.9627°
perigee height: 687 km
apogee height: 690 km
right ascension of ascending node: 23.0832°
argument of perigee: 66.8555°
revolutions per day: 14.61484469
mean anomaly at epoch: 293.2863°
orbit number at epoch: 47108

The dashed part of the orbit path shows where the satellite is in the earth's shadow,  

DLR